Casper, WY

5:49 PM MDT on April 23, 2018 (GMT -0600)
Natrona County International

Weather History for KCPR - January, 2014

Change the Weather History Date:

Sunday, January 19, 2014

  Actual Average Record
Temperature  
Mean Temperature 37 °F 25 °F  
Max Temperature 43 °F 35 °F 57 °F (2009)
Min Temperature 31 °F 15 °F -25 °F (1963)
Degree Days  
Heating Degree Days 28 40  
Month to date heating degree days 764 765  
Since 1 July heating degree days 3984 3894  
Cooling Degree Days 0 0  
Month to date cooling degree days 0 0  
Year to date cooling degree days 0 0  
Moisture  
Dew Point 19 °F    
Average Humidity 50    
Maximum Humidity 59    
Minimum Humidity 40    
Precipitation  
Precipitation 0.00 in 0.02 in 0.22 in (1991)
Month to date precipitation 0.58 0.31  
Year to date precipitation 0.58 0.31  
Snow  
Snow 0.00 in 0.30 in - ()
Month to date snowfall 10.2 5.7  
Since 1 July snowfall 50.7 36.2  
Snow Depth T in    
Sea Level Pressure  
Sea Level Pressure 30.05 in    
Wind  
Wind Speed 21 mph (SW)    
Max Wind Speed 32 mph    
Max Gust Speed 38 mph    
Visibility 10 miles    
Events      
T = Trace of Precipitation, MM = Missing Value Source: NWS Daily Summary

Daily Weather History Graph

Daily Weather History Graph

Search for Another Location

Airport or City:

Astronomy

Jan. 19, 2014 Rise Set
Actual Time 7:31 AM MST 5:01 PM MST
Civil Twilight 7:00 AM MST 5:33 PM MST
Nautical Twilight 6:25 AM MST 6:07 PM MST
Astronomical Twilight 5:52 AM MST 6:41 PM MST
Moon 8:49 PM MST (1/19) 8:57 AM MST (1/19)
Length of Visible Light 10h 32m
Length of Day
9h 30m
Waning Gibbous, 89% of the Moon is Illuminated
Jan 19
Waning Gibbous
Jan 23
Last Quarter
Jan 30
New
Feb 6
First Quarter
Feb 14
Full

Hourly Weather History & Observations

Time (MST) Temp. Windchill Dew Point Humidity Pressure Visibility Wind Dir Wind Speed Gust Speed Precip Events Conditions
12:53 AM 32.0 °F 19.8 °F 19.0 °F 59% 30.11 in 10.0 mi SW 20.7 mph - N/A   Clear
1:53 AM 32.0 °F 20.1 °F 19.0 °F 59% 30.12 in 10.0 mi SW 19.6 mph - N/A   Clear
2:53 AM 33.1 °F 21.5 °F 19.0 °F 56% 30.11 in 10.0 mi SW 19.6 mph 28.8 mph N/A   Clear
3:53 AM 34.0 °F 21.5 °F 19.0 °F 54% 30.09 in 10.0 mi SW 24.2 mph 32.2 mph N/A   Clear
4:53 AM 34.0 °F 21.5 °F 18.0 °F 52% 30.08 in 10.0 mi SSW 24.2 mph 35.7 mph N/A   Clear
5:53 AM 30.9 °F 18.1 °F 17.1 °F 57% 30.10 in 10.0 mi SSW 21.9 mph 31.1 mph N/A   Clear
6:53 AM 32.0 °F 20.1 °F 17.1 °F 54% 30.11 in 10.0 mi SSW 19.6 mph 26.5 mph N/A   Clear
7:53 AM 33.1 °F 19.8 °F 17.1 °F 52% 30.09 in 10.0 mi SSW 26.5 mph 35.7 mph N/A   Clear
8:53 AM 35.1 °F 22.7 °F 17.1 °F 48% 30.10 in 10.0 mi SW 25.3 mph 38.0 mph N/A   Clear
9:53 AM 37.0 °F - 18.0 °F 46% 30.11 in 10.0 mi North - - N/A   Clear
10:53 AM 39.0 °F 27.6 °F 18.0 °F 43% 30.09 in 10.0 mi SSW 27.6 mph - N/A   Clear
11:53 AM 39.9 °F 29.7 °F 19.9 °F 45% 30.07 in 10.0 mi SSW 23.0 mph 31.1 mph N/A   Clear
12:53 PM 41.0 °F 31.1 °F 19.9 °F 43% 30.00 in 10.0 mi SSW 23.0 mph 32.2 mph N/A   Clear
1:53 PM 42.1 °F 32.6 °F 21.0 °F 43% 29.97 in 10.0 mi SW 23.0 mph 34.5 mph N/A   Clear
2:53 PM 42.1 °F 32.6 °F 21.9 °F 45% 29.94 in 10.0 mi SW 23.0 mph 34.5 mph N/A   Clear
3:53 PM 42.1 °F 33.1 °F 23.0 °F 47% 29.96 in 10.0 mi SSW 20.7 mph 32.2 mph N/A   Clear
4:53 PM 41.0 °F 31.1 °F 23.0 °F 49% 29.96 in 10.0 mi SW 23.0 mph - N/A   Clear
5:53 PM 39.9 °F 30.2 °F 23.0 °F 51% 29.97 in 10.0 mi SW 20.7 mph - N/A   Clear
6:53 PM 39.0 °F 29.3 °F 21.9 °F 50% 29.98 in 10.0 mi SW 19.6 mph - N/A   Clear
7:53 PM 35.1 °F 25.5 °F 21.0 °F 57% 30.02 in 10.0 mi SW 15.0 mph - N/A   Clear
8:53 PM 35.1 °F 24.5 °F 19.0 °F 52% 30.02 in 10.0 mi SW 18.4 mph - N/A   Clear
9:53 PM 35.1 °F 24.1 °F 16.0 °F 46% 30.03 in 10.0 mi SW 19.6 mph - N/A   Clear
10:53 PM 35.1 °F 25.5 °F 15.1 °F 44% 30.04 in 10.0 mi SW 15.0 mph 24.2 mph N/A   Clear
11:53 PM 33.1 °F 24.9 °F 15.1 °F 48% 30.05 in 10.0 mi SW 10.4 mph - N/A   Clear